| time (UTC) | temp F | wind direction | speed knots | gust knots | rain 1hr in | rain 24hr in | rain mn in | humidity % | barometer mb |
| 20260505235530 | 73 | 106 | 0.9 | 3.5 | 0.00 | 0.00 | 0.00 | 97 | 1011.5 |
| 20260505234630 | 74 | 132 | 0.0 | 3.5 | 0.00 | 0.00 | 0.00 | 96 | 1011.4 |
| 20260505233730 | 74 | 0 | 0.0 | 0.0 | 0.00 | 0.00 | 0.00 | 95 | 1011.4 |
| 20260505232828 | 74 | 0 | 0.0 | 0.0 | 0.00 | 0.00 | 0.00 | 94 | 1011.1 |
| 20260505231928 | 74 | 0 | 0.0 | 0.0 | 0.00 | 0.00 | 0.00 | 95 | 1011.4 |
| 20260505231028 | 74 | 0 | 0.0 | 0.0 | 0.00 | 0.00 | 0.00 | 95 | 1011.1 |
| 20260505230130 | 74 | 0 | 0.0 | 0.0 | 0.00 | 0.00 | 0.00 | 95 | 1011.0 |
| 20260505225228 | 74 | 0 | 0.0 | 0.0 | 0.00 | 0.00 | 0.00 | 95 | 1011.1 |
| 20260505223428 | 75 | 0 | 0.0 | 0.0 | 0.00 | 0.00 | 0.00 | 94 | 1011.1 |
| 20260505222528 | 75 | 87 | 0.0 | 1.7 | 0.00 | 0.00 | 0.00 | 94 | 1010.6 |
| 20260505221628 | 76 | 0 | 0.0 | 0.0 | 0.00 | 0.00 | 0.00 | 93 | 1010.8 |
| 20260505220728 | 76 | 0 | 0.0 | 0.0 | 0.00 | 0.00 | 0.00 | 92 | 1010.8 |
| 20260505215828 | 77 | 0 | 0.0 | 0.0 | 0.00 | 0.00 | 0.00 | 91 | 1010.7 |
| 20260505214928 | 77 | 0 | 0.0 | 0.0 | 0.00 | 0.00 | 0.00 | 91 | 1010.5 |
| 20260505214030 | 78 | 0 | 0.0 | 0.0 | 0.00 | 0.00 | 0.00 | 90 | 1010.5 |
| 20260505212228 | 79 | 0 | 0.0 | 0.0 | 0.00 | 0.00 | 0.00 | 87 | 1010.6 |
| 20260505211330 | 80 | 0 | 0.0 | 0.0 | 0.00 | 0.00 | 0.00 | 85 | 1010.5 |
| 20260505210428 | 82 | 0 | 0.0 | 0.0 | 0.00 | 0.00 | 0.00 | 81 | 1010.6 |
| 20260505205529 | 82 | 0 | 0.0 | 0.0 | 0.00 | 0.00 | 0.00 | 79 | 1010.6 |
| 20260505204628 | 83 | 62 | 0.0 | 1.7 | 0.00 | 0.00 | 0.00 | 79 | 1010.4 |
| 20260505202828 | 84 | 359 | 1.7 | 3.5 | 0.00 | 0.00 | 0.00 | 76 | 1010.7 |
| 20260505201928 | 84 | 357 | 1.7 | 1.7 | 0.00 | 0.00 | 0.00 | 76 | 1010.7 |
| 20260505201029 | 84 | 36 | 0.9 | 1.7 | 0.00 | 0.00 | 0.00 | 76 | 1010.9 |
| 20260505200128 | 82 | 66 | 1.7 | 3.5 | 0.00 | 0.00 | 0.00 | 79 | 1010.9 |
| 20260505195229 | 82 | 36 | 1.7 | 3.5 | 0.00 | 0.00 | 0.00 | 80 | 1010.9 |
| 20260505194328 | 82 | 22 | 0.9 | 1.7 | 0.00 | 0.00 | 0.00 | 80 | 1011.0 |
| 20260505193428 | 82 | 26 | 0.0 | 1.7 | 0.00 | 0.00 | 0.00 | 79 | 1011.1 |
| 20260505192529 | 82 | 2 | 0.9 | 3.5 | 0.00 | 0.00 | 0.00 | 82 | 1011.2 |
| 20260505191629 | 82 | 1 | 0.9 | 1.7 | 0.00 | 0.00 | 0.00 | 80 | 1011.2 |
| 20260505190730 | 82 | 51 | 0.0 | 3.5 | 0.00 | 0.00 | 0.00 | 80 | 1011.1 |
| 20260505184028 | 80 | 41 | 0.9 | 3.5 | 0.00 | 0.00 | 0.00 | 83 | 1011.0 |
| 20260505183128 | 81 | 52 | 0.9 | 3.5 | 0.00 | 0.00 | 0.00 | 82 | 1011.1 |
| 20260505182229 | 81 | 40 | 1.7 | 3.5 | 0.00 | 0.00 | 0.00 | 82 | 1011.1 |
| 20260505181330 | 81 | 72 | 1.7 | 3.5 | 0.00 | 0.00 | 0.00 | 81 | 1010.8 |
| 20260505180428 | 80 | 90 | 1.7 | 3.5 | 0.00 | 0.00 | 0.00 | 82 | 1010.8 |
| 20260505175528 | 80 | 63 | 1.7 | 6.1 | 0.00 | 0.00 | 0.00 | 82 | 1010.9 |
| 20260505174630 | 82 | 65 | 3.5 | 6.1 | 0.00 | 0.00 | 0.00 | 80 | 1010.9 |
| 20260505173730 | 82 | 17 | 1.7 | 6.1 | 0.00 | 0.00 | 0.00 | 79 | 1010.9 |
| 20260505172830 | 82 | 64 | 1.7 | 5.2 | 0.00 | 0.00 | 0.00 | 79 | 1011.0 |
| 20260505171028 | 82 | 83 | 1.7 | 7.0 | 0.00 | 0.00 | 0.00 | 80 | 1011.4 |
| 20260505170128 | 80 | 53 | 1.7 | 9.6 | 0.00 | 0.00 | 0.00 | 82 | 1011.4 |
| 20260505164328 | 79 | 51 | 3.5 | 7.0 | 0.00 | 0.00 | 0.00 | 84 | 1011.7 |
| 20260505163428 | 78 | 34 | 3.5 | 7.0 | 0.00 | 0.00 | 0.00 | 85 | 1011.9 |
| 20260505162530 | 78 | 66 | 1.7 | 6.1 | 0.00 | 0.00 | 0.00 | 86 | 1012.0 |
| 20260505160728 | 77 | 72 | 0.9 | 6.1 | 0.00 | 0.00 | 0.00 | 87 | 1012.2 |
| 20260505153129 | 75 | 84 | 1.7 | 5.2 | 0.00 | 0.00 | 0.00 | 92 | 1012.9 |
| 20260505152228 | 74 | 53 | 0.9 | 5.2 | 0.00 | 0.00 | 0.00 | 92 | 1013.0 |
| 20260505151328 | 74 | 33 | 1.7 | 5.2 | 0.00 | 0.00 | 0.00 | 93 | 1013.2 |
| 20260505150428 | 73 | 50 | 2.6 | 7.0 | 0.00 | 0.00 | 0.00 | 94 | 1013.2 |
| 20260505140128 | 72 | 47 | 3.5 | 6.1 | 0.00 | 0.00 | 0.00 | 93 | 1013.4 |
| 20260505124928 | 70 | 60 | 0.9 | 6.1 | 0.00 | 0.00 | 0.00 | 95 | 1013.5 |
| 20260505124028 | 70 | 59 | 3.5 | 6.1 | 0.00 | 0.00 | 0.00 | 96 | 1013.5 |
| 20260505123128 | 69 | 57 | 1.7 | 5.2 | 0.00 | 0.00 | 0.00 | 96 | 1012.9 |
| 20260505122228 | 69 | 64 | 1.7 | 7.8 | 0.00 | 0.00 | 0.00 | 96 | 1013.1 |
| 20260505121328 | 69 | 80 | 3.5 | 7.0 | 0.00 | 0.00 | 0.00 | 96 | 1012.8 |
| 20260505115528 | 67 | 103 | 0.9 | 6.1 | 0.00 | 0.00 | 0.00 | 98 | 1012.7 |
| 20260505113728 | 67 | 62 | 1.7 | 3.5 | 0.00 | 0.00 | 0.00 | 99 | 1012.7 |
| 20260505112828 | 66 | 83 | 1.7 | 6.1 | 0.00 | 0.00 | 0.00 | 99 | 1012.9 |
| 20260505111930 | 66 | 86 | 2.6 | 5.2 | 0.00 | 0.00 | 0.00 | 99 | 1012.8 |
| 20260505111028 | 66 | 89 | 0.9 | 3.5 | 0.00 | 0.00 | 0.00 | 99 | 1012.6 |
| 20260505101628 | 65 | 76 | 1.7 | 5.2 | 0.00 | 0.00 | 0.00 | 99 | 1012.1 |
| 20260505094928 | 64 | 94 | 0.9 | 3.5 | 0.00 | 0.00 | 0.00 | 99 | 1012.0 |
| 20260505094029 | 64 | 99 | 0.9 | 1.7 | 0.00 | 0.00 | 0.00 | 99 | 1012.0 |
| 20260505093128 | 65 | 94 | 0.9 | 1.7 | 0.00 | 0.00 | 0.00 | 99 | 1012.0 |
| 20260505092229 | 65 | 93 | 0.0 | 3.5 | 0.00 | 0.00 | 0.00 | 99 | 1011.8 |
| 20260505091328 | 65 | 98 | 1.7 | 3.5 | 0.00 | 0.00 | 0.00 | 99 | 1011.7 |
| 20260505084628 | 65 | 83 | 1.7 | 3.5 | 0.00 | 0.00 | 0.00 | 99 | 1011.9 |
| 20260505083729 | 65 | 78 | 1.7 | 3.5 | 0.00 | 0.00 | 0.00 | 99 | 1011.7 |
| 20260505082829 | 65 | 102 | 1.7 | 3.5 | 0.00 | 0.00 | 0.00 | 99 | 1011.6 |
| 20260505081928 | 65 | 96 | 0.0 | 3.5 | 0.00 | 0.00 | 0.00 | 99 | 1011.7 |
| 20260505081028 | 65 | 91 | 1.7 | 3.5 | 0.00 | 0.00 | 0.00 | 99 | 1011.8 |
| 20260505080128 | 65 | 84 | 0.9 | 3.5 | 0.00 | 0.00 | 0.00 | 99 | 1012.0 |
| 20260505074328 | 65 | 90 | 1.7 | 3.5 | 0.00 | 0.00 | 0.00 | 99 | 1012.1 |
| 20260505073428 | 65 | 100 | 0.9 | 3.5 | 0.00 | 0.00 | 0.00 | 99 | 1012.0 |
| 20260505072527 | 65 | 92 | 0.9 | 3.5 | 0.00 | 0.00 | 0.00 | 99 | 1012.0 |
| 20260505071628 | 65 | 126 | 1.7 | 3.5 | 0.00 | 0.00 | 0.00 | 99 | 1011.8 |
| 20260505070728 | 65 | 123 | 1.7 | 3.5 | 0.00 | 0.00 | 0.00 | 99 | 1012.0 |
| 20260505065828 | 65 | 100 | 1.7 | 3.5 | 0.00 | 0.00 | 0.00 | 99 | 1012.3 |
| 20260505064928 | 65 | 90 | 0.0 | 3.5 | 0.00 | 0.00 | 0.00 | 99 | 1012.3 |
| 20260505064028 | 65 | 93 | 0.9 | 5.2 | 0.00 | 0.00 | 0.00 | 99 | 1012.4 |
| 20260505063128 | 65 | 80 | 0.0 | 3.5 | 0.00 | 0.00 | 0.00 | 99 | 1012.5 |
| 20260505062230 | 65 | 92 | 0.9 | 1.7 | 0.00 | 0.00 | 0.00 | 99 | 1012.4 |
| 20260505061328 | 65 | 114 | 0.9 | 3.5 | 0.00 | 0.00 | 0.00 | 99 | 1012.3 |
| 20260505060428 | 65 | 93 | 1.7 | 1.7 | 0.00 | 0.00 | 0.00 | 99 | 1012.1 |
| 20260505055528 | 65 | 89 | 0.9 | 1.7 | 0.00 | 0.00 | 0.00 | 99 | 1012.3 |
| 20260505054628 | 65 | 92 | 0.9 | 1.7 | 0.00 | 0.00 | 0.00 | 99 | 1012.4 |
| 20260505053728 | 65 | 90 | 0.0 | 1.7 | 0.00 | 0.00 | 0.00 | 99 | 1012.4 |
| 20260505052828 | 65 | 66 | 0.9 | 1.7 | 0.00 | 0.00 | 0.00 | 99 | 1012.3 |
| 20260505051928 | 66 | 62 | 0.0 | 3.5 | 0.00 | 0.00 | 0.00 | 99 | 1012.4 |
| 20260505051029 | 66 | 75 | 1.7 | 1.7 | 0.00 | 0.00 | 0.00 | 99 | 1012.3 |
| 20260505050128 | 66 | 52 | 0.0 | 3.5 | 0.00 | 0.00 | 0.00 | 99 | 1012.5 |
| 20260505041629 | 66 | 69 | 1.7 | 3.5 | 0.00 | 0.00 | 0.00 | 99 | 1012.7 |
| 20260505040728 | 66 | 79 | 0.9 | 1.7 | 0.00 | 0.00 | 0.00 | 98 | 1012.6 |
| 20260505035828 | 66 | 55 | 0.9 | 1.7 | 0.00 | 0.00 | 0.00 | 98 | 1012.9 |
| 20260505034927 | 67 | 65 | 1.7 | 3.5 | 0.00 | 0.00 | 0.00 | 98 | 1012.9 |
| 20260505034028 | 67 | 82 | 0.0 | 1.7 | 0.00 | 0.00 | 0.00 | 98 | 1012.7 |
| 20260505033127 | 67 | 41 | 0.0 | 3.5 | 0.00 | 0.00 | 0.00 | 98 | 1012.9 |
| 20260505032229 | 67 | 54 | 1.7 | 3.5 | 0.00 | 0.00 | 0.00 | 97 | 1012.8 |
| 20260505030428 | 67 | 50 | 0.9 | 3.5 | 0.00 | 0.00 | 0.00 | 97 | 1012.3 |
| 20260505025528 | 67 | 35 | 0.9 | 5.2 | 0.00 | 0.00 | 0.00 | 97 | 1012.3 |
| 20260505024628 | 67 | 42 | 2.6 | 5.2 | 0.00 | 0.00 | 0.00 | 97 | 1012.3 |
| 20260505023729 | 67 | 35 | 0.9 | 6.1 | 0.00 | 0.00 | 0.00 | 96 | 1012.2 |
| 20260505022828 | 67 | 25 | 1.7 | 5.2 | 0.00 | 0.00 | 0.00 | 96 | 1012.4 |
| 20260505021929 | 67 | 33 | 2.6 | 6.1 | 0.00 | 0.00 | 0.00 | 96 | 1012.2 |
| 20260505021029 | 67 | 35 | 2.6 | 6.1 | 0.00 | 0.00 | 0.00 | 95 | 1012.2 |
| 20260505020128 | 67 | 44 | 1.7 | 6.1 | 0.00 | 0.00 | 0.00 | 95 | 1012.2 |
| 20260505015228 | 67 | 26 | 3.5 | 9.6 | 0.00 | 0.00 | 0.00 | 95 | 1012.1 |
| 20260505014328 | 67 | 26 | 3.5 | 7.8 | 0.00 | 0.00 | 0.00 | 94 | 1012.2 |
| 20260505012529 | 67 | 41 | 2.6 | 7.8 | 0.00 | 0.00 | 0.00 | 94 | 1012.2 |
| 20260505011627 | 67 | 42 | 2.6 | 7.0 | 0.00 | 0.00 | 0.00 | 95 | 1012.2 |
| 20260505005828 | 66 | 36 | 2.6 | 6.1 | 0.00 | 0.00 | 0.00 | 96 | 1012.2 |
| 20260505004028 | 66 | 35 | 4.3 | 7.0 | 0.00 | 0.00 | 0.00 | 96 | 1012.2 |
| 20260505003129 | 66 | 45 | 4.3 | 6.1 | 0.00 | 0.00 | 0.00 | 96 | 1012.2 |
| 20260505000428 | 65 | 66 | 0.9 | 3.5 | 0.00 | 0.00 | 0.00 | 97 | 1011.9 |